Temp
16 16 17 18 18 19 19 18 18 20 19 18 17 17 17 15 14 13 13 13 12 12 12 12 12 11 11 11 11 11 12 12 11 11 11 11 11 10 10 9 10 10 11 10
16 16 18 18 19 19 19 19 20 20 20 19 18 18 17 16 15 14 14 14 13 13 12 12 12 11 11 11 11 11 11 12 12 12 11 11 11 10 9 10 10 11 10 10
16 17 18 18 19 20 20 20 20 20 20 20 18 17 18 16 16 15 15 14 14 14 13 13 12 12 11 11 12 11 11 12 12 12 11 11 11 10 9 10 10 10 10 10
17 18 18 19 19 19 19 20 20 19 19 20 19 18 18 17 16 16 15 15 15 14 13 13 12 12 12 12 12 12 11 11 12 12 12 12 11 10 10 9 10 11 11 10
17 18 18 19 19 19 19 20 20 20 19 19 19 18 19 17 16 16 16 15 15 15 14 13 13 13 12 12 12 12 11 11 12 12 12 12 11 10 9 10 10 10 10 11
17 18 18 19 19 19 19 19 19 19 19 17 19 17 18 18 18 18 17 16 16 15 14 14 13 13 12 12 12 12 12 11 12 12 12 12 12 11 11 11 11 10 10 10
17 18 19 19 19 19 19 19 19 16 13 12 19 17 18 19 19 19 17 17 16 16 16 15 14 14 13 13 12 12 12 12 12 12 13 13 12 12 11 11 11 10 10 10
17 18 19 19 19 19 19 19 19 17 10 14 17 18 19 20 19 19 18 17 17 16 16 15 15 14 14 13 13 13 12 12 13 13 13 13 12 12 12 11 11 11 11 11
17 18 19 20 20 19 19 19 20 20 20 19 18 20 19 19 19 19 18 18 17 16 16 16 15 15 14 13 13 13 13 13 13 13 13 13 13 13 12 12 11 11 11 11
18 19 19 19 20 19 19 19 19 20 17 18 19 19 19 19 19 19 18 17 17 17 16 16 16 15 15 14 13 13 14 14 14 14 14 14 13 13 12 12 11 11 11 11
18 19 19 19 19 19 19 19 19 19 20 16 14 17 18 18 19 19 18 18 17 17 16 16 16 16 15 15 14 14 14 15 15 15 14 14 14 13 13 13 12 11 11 11
17 18 18 18 19 19 20 19 19 19 19 20 20 18 18 17 19 19 18 18 17 17 16 16 16 15 15 15 15 15 15 15 14 15 15 14 14 14 14 13 12 12 11 11
17 17 16 18 19 19 20 20 20 20 20 20 18 18 19 19 19 18 18 17 17 17 16 16 16 16 15 15 15 14 14 15 15 15 14 14 14 14 14 14 13 12 12 11
16 16 16 16 17 17 18 19 20 20 20 20 20 18 18 18 18 18 17 17 17 17 16 16 16 16 16 16 15 14 14 15 15 15 15 15 14 14 14 14 13 12 12 11
16 15 16 16 17 17 17 18 18 19 20 20 19 18 17 17 17 17 16 16 16 17 16 16 16 16 16 15 15 15 15 15 15 15 15 15 14 14 14 14 14 13 12 11
15 15 15 15 15 16 16 17 18 18 18 19 18 17 18 17 17 16 16 17 16 17 16 17 16 16 16 15 15 15 15 16 16 16 15 15 15 14 14 14 14 13 13 12
14 14 15 14 15 15 16 14 16 16 15 16 17 17 17 16 15 15 16 17 17 17 17 16 16 16 15 15 16 16 16 16 16 16 16 15 15 15 15 14 14 14 13 13
13 14 14 14 14 11 13 13 15 15 15 16 17 16 16 16 15 15 16 15 15 17 17 17 16 15 15 15 15 16 15 16 16 16 16 16 16 16 15 14 14 14 13 12
14 13 12 13 13 13 14 13 13 14 14 14 14 15 16 15 15 13 13 13 12 14 15 16 16 16 16 15 16 17 16 15 15 15 16 16 16 15 15 15 14 13 12 12
12 11 12 11 11 11 11 13 13 13 13 13 12 13 13 13 13 12 13 12 12 13 15 15 15 15 15 15 15 15 16 15 15 15 15 15 15 15 15 14 14 13 12 12
11 11 10 10 10 11 11 11 12 12 10 11 10 10 11 12 10 11 12 11 11 12 13 14 14 14 14 15 15 15 15 15 15 15 15 15 15 15 14 14 14 13 12 12
9 10 10 10 9 10 10 10 11 9 10 9 10 11 9 9 10 8 11 11 11 11 13 14 14 13 13 14 14 13 14 14 15 15 15 14 14 14 14 13 13 12 11 12
8 8 9 8 9 9 8 8 9 10 9 9 9 10 9 10 9 9 11 11 11 11 11 13 13 13 13 13 13 13 14 13 13 14 14 13 13 13 13 12 11 11 11 11
8 8 7 7 8 8 9 9 9 10 8 8 9 9 6 8 9 11 11 11 11 11 11 11 13 12 13 13 13 13 13 13 13 13 12 12 12 12 12 11 11 11 11 11
8 8 8 7 7 8 8 8 8 8 8 9 10 9 9 10 10 10 11 11 11 10 10 11 12 11 11 12 12 12 12 12 13 12 12 12 12 12 11 11 11 11 11 11
8 7 7 7 7 7 9 8 8 7 7 8 9 9 9 9 10 10 9 10 11 10 10 10 10 10 10 10 11 11 11 11 11 11 11 11 11 11 11 11 11 11 11 11
Height
3170 3172 3169 3167 3170 3168 3165 3165 3168 3167 3165 3166 3165 3163 3162 3164 3167 3170 3175 3176 3179 3182 3183 3185 3187 3189 3190 3192 3194 3196 3197 3200 3201 3203 3205 3207 3209 3209 3210 3210 3211 3213 3212 3209
3171 3168 3164 3165 3169 3167 3165 3165 3168 3168 3169 3165 3163 3163 3163 3165 3166 3167 3171 3173 3176 3179 3181 3183 3186 3186 3188 3190 3194 3196 3197 3199 3201 3202 3204 3206 3208 3208 3207 3207 3211 3214 3211 3211
3168 3165 3166 3167 3168 3166 3165 3165 3165 3167 3166 3166 3163 3164 3164 3164 3165 3168 3169 3170 3173 3175 3177 3181 3183 3185 3186 3189 3193 3195 3196 3198 3200 3202 3203 3205 3207 3204 3206 3207 3210 3211 3211 3211
3166 3164 3165 3163 3164 3165 3163 3162 3164 3164 3165 3164 3164 3163 3165 3163 3164 3166 3167 3167 3169 3171 3175 3178 3181 3183 3184 3187 3191 3193 3196 3197 3199 3200 3203 3205 3205 3206 3211 3206 3215 3206 3209 3212
3163 3163 3164 3164 3164 3163 3162 3161 3162 3162 3162 3164 3161 3159 3153 3158 3160 3161 3163 3163 3166 3168 3172 3175 3179 3180 3182 3185 3188 3191 3194 3196 3198 3199 3201 3203 3205 3207 3208 3210 3213 3208 3209 3211
3159 3159 3159 3159 3160 3160 3160 3159 3160 3161 3163 3158 3156 3162 3154 3152 3152 3155 3159 3161 3163 3168 3171 3174 3179 3181 3181 3183 3186 3189 3193 3195 3196 3197 3199 3202 3205 3206 3206 3208 3207 3210 3209 3210
3157 3154 3154 3157 3158 3159 3159 3159 3159 3166 3173 3168 3156 3161 3153 3154 3151 3153 3155 3160 3162 3164 3168 3172 3176 3180 3180 3182 3184 3187 3190 3194 3194 3196 3198 3201 3204 3205 3206 3206 3207 3208 3208 3209
3157 3153 3152 3152 3154 3155 3155 3158 3159 3162 3170 3153 3157 3154 3152 3150 3150 3151 3154 3158 3162 3164 3168 3171 3174 3178 3180 3179 3181 3185 3188 3191 3192 3193 3196 3198 3201 3204 3207 3208 3208 3208 3211 3210
3152 3148 3146 3147 3149 3154 3153 3153 3156 3154 3151 3150 3153 3153 3153 3151 3152 3155 3156 3158 3160 3163 3166 3170 3173 3174 3178 3179 3181 3182 3185 3188 3190 3191 3193 3197 3199 3201 3204 3207 3207 3206 3207 3207
3150 3150 3147 3150 3151 3152 3152 3153 3152 3151 3152 3153 3150 3151 3154 3153 3152 3154 3155 3157 3158 3162 3164 3168 3171 3174 3177 3179 3181 3180 3183 3185 3187 3189 3191 3193 3197 3199 3202 3204 3204 3203 3203 3204
3148 3148 3147 3147 3150 3149 3151 3149 3150 3151 3151 3151 3156 3154 3152 3147 3152 3155 3156 3156 3157 3160 3165 3166 3170 3173 3175 3177 3179 3180 3182 3183 3185 3188 3190 3191 3194 3197 3198 3199 3200 3199 3198 3199
3147 3146 3147 3147 3145 3149 3147 3147 3148 3147 3146 3146 3147 3152 3151 3153 3154 3154 3156 3157 3158 3159 3162 3166 3168 3168 3172 3175 3176 3178 3180 3182 3185 3187 3189 3190 3192 3194 3195 3195 3196 3197 3197 3196
3147 3148 3149 3147 3147 3146 3145 3145 3144 3145 3145 3143 3145 3150 3150 3154 3154 3154 3155 3158 3158 3159 3161 3164 3168 3171 3170 3172 3174 3175 3178 3180 3183 3185 3187 3188 3190 3191 3192 3193 3193 3195 3194 3193
3147 3147 3149 3149 3148 3148 3143 3141 3140 3141 3141 3141 3141 3142 3147 3149 3152 3154 3156 3158 3160 3161 3163 3164 3165 3168 3170 3171 3172 3173 3174 3177 3180 3182 3184 3186 3187 3189 3189 3190 3189 3189 3190 3189
3144 3144 3144 3144 3144 3145 3141 3138 3137 3138 3139 3139 3138 3139 3144 3148 3151 3154 3155 3158 3159 3160 3162 3163 3164 3165 3168 3169 3171 3172 3173 3174 3176 3178 3180 3182 3184 3185 3186 3185 3185 3184 3183 3183
3143 3142 3142 3139 3140 3141 3140 3137 3135 3138 3136 3133 3135 3138 3140 3145 3149 3153 3154 3153 3156 3157 3158 3159 3161 3164 3165 3167 3168 3169 3171 3172 3174 3174 3176 3178 3179 3181 3181 3181 3179 3179 3180 3180
3141 3142 3140 3138 3139 3138 3141 3138 3137 3138 3137 3133 3141 3141 3139 3142 3147 3149 3151 3151 3153 3155 3156 3156 3157 3158 3161 3163 3165 3166 3167 3168 3170 3171 3172 3173 3175 3176 3175 3176 3177 3177 3176 3177
3139 3138 3138 3137 3139 3139 3141 3141 3138 3137 3137 3133 3135 3140 3139 3139 3141 3145 3149 3150 3151 3152 3153 3154 3155 3154 3155 3157 3159 3161 3163 3165 3165 3167 3167 3168 3169 3170 3171 3173 3173 3173 3172 3170
3134 3134 3135 3137 3137 3138 3140 3141 3138 3136 3139 3139 3136 3139 3140 3142 3139 3144 3150 3151 3151 3150 3151 3151 3151 3153 3152 3152 3153 3155 3158 3159 3160 3161 3161 3162 3163 3165 3167 3167 3167 3166 3165 3165
3129 3132 3134 3135 3137 3137 3140 3138 3136 3136 3140 3141 3140 3136 3136 3138 3136 3137 3141 3145 3154 3151 3147 3148 3147 3147 3148 3147 3149 3151 3152 3153 3154 3154 3155 3157 3157 3159 3160 3160 3160 3161 3161 3161
3129 3130 3132 3132 3135 3135 3133 3131 3132 3134 3141 3135 3137 3137 3137 3132 3139 3141 3141 3139 3150 3155 3145 3144 3145 3144 3144 3143 3143 3145 3146 3145 3147 3148 3150 3150 3150 3152 3154 3154 3155 3156 3158 3159
3130 3129 3129 3129 3129 3130 3129 3129 3130 3133 3135 3132 3136 3135 3137 3136 3137 3131 3143 3142 3151 3149 3142 3140 3144 3142 3141 3142 3142 3140 3140 3142 3141 3142 3142 3143 3146 3148 3149 3150 3150 3150 3153 3152
3128 3128 3127 3129 3127 3126 3125 3124 3126 3129 3131 3132 3132 3130 3130 3135 3141 3136 3140 3143 3144 3141 3139 3136 3141 3140 3138 3138 3139 3137 3136 3136 3136 3135 3136 3138 3140 3142 3144 3145 3146 3146 3148 3146
3124 3122 3120 3122 3125 3123 3123 3119 3123 3126 3127 3127 3132 3137 3130 3138 3141 3142 3140 3139 3139 3138 3135 3135 3135 3137 3136 3135 3134 3133 3132 3132 3132 3131 3132 3133 3134 3138 3138 3140 3140 3140 3141 3141
3122 3119 3116 3118 3120 3121 3118 3111 3120 3121 3126 3130 3131 3130 3139 3140 3136 3134 3129 3132 3132 3130 3131 3132 3132 3133 3134 3130 3129 3128 3129 3130 3130 3129 3129 3130 3132 3132 3134 3133 3134 3134 3134 3134
3118 3118 3117 3117 3120 3119 3121 3119 3120 3123 3125 3123 3125 3131 3133 3132 3128 3125 3126 3128 3129 3128 3129 3127 3126 3129 3129 3126 3127 3128 3129 3129 3128 3127 3126 3125 3127 3128 3128 3127 3127 3127 3127 3127
Wind_Speed
5 11 17 15 14 9 13 13 16 7 3 5 3 1 7 18 25 27 20 16 19 20 22 21 12 16 20 20 10 5 11 6 10 9 10 9 8 10 7 5 4 7 9 11
6 16 12 11 7 15 9 15 8 3 6 4 3 2 5 14 18 28 21 21 19 23 25 23 14 18 21 9 10 7 8 8 11 12 12 11 10 9 8 5 9 6 6 8
13 17 18 20 15 15 17 15 8 7 7 9 9 9 6 10 14 20 20 16 20 13 27 24 19 18 21 16 8 7 4 9 11 13 13 10 6 6 4 3 10 10 7 8
13 11 15 18 14 13 15 15 12 10 13 15 11 5 4 18 24 23 23 22 17 18 25 25 22 18 22 18 12 7 7 9 11 13 12 10 6 3 3 6 1 9 5 7
14 14 17 15 14 17 20 19 20 14 12 12 9 2 14 21 29 26 23 24 19 18 20 27 23 17 18 21 17 13 10 9 11 11 12 11 6 4 3 3 6 10 6 8
22 19 19 11 14 11 15 18 19 17 20 8 23 7 12 24 22 18 19 24 22 18 18 22 25 18 18 21 21 18 14 9 11 9 11 11 8 6 8 5 5 6 8 9
17 19 16 16 18 14 11 13 10 5 8 10 21 15 23 11 8 15 20 21 25 20 16 13 25 22 17 22 24 23 19 10 10 10 9 9 8 7 6 6 5 6 3 2
21 25 22 20 22 18 14 15 13 3 5 12 10 3 9 12 8 12 14 14 23 23 19 16 12 22 19 17 16 16 16 12 9 8 9 9 9 8 7 5 5 8 7 7
13 21 15 10 17 13 14 14 15 15 22 6 14 11 16 13 15 14 15 11 17 22 17 17 13 12 19 18 16 13 13 12 8 8 10 12 11 9 8 7 8 9 7 7
15 19 18 8 9 8 10 14 15 14 1 1 8 15 14 16 16 14 12 11 11 19 15 18 15 13 7 12 16 15 11 9 6 8 10 11 12 11 10 10 9 11 10 5
10 16 17 17 9 9 12 17 16 18 17 1 3 1 19 8 14 14 12 11 9 20 19 20 18 16 11 9 12 13 7 5 6 6 9 11 11 11 11 10 10 12 15 12
4 7 13 20 19 16 13 14 18 18 16 19 18 2 8 8 13 16 18 13 11 9 16 20 18 14 18 16 14 10 9 5 1 1 7 9 10 11 11 11 11 13 16 16
8 7 15 16 15 15 20 24 15 19 19 23 9 14 23 22 18 17 19 15 12 12 16 15 17 15 18 21 19 17 13 6 3 2 3 5 8 9 10 11 13 15 18 21
12 16 16 19 22 25 19 18 19 15 22 21 23 23 18 16 17 17 15 15 16 14 18 17 15 17 12 10 17 21 18 12 7 4 5 6 6 7 9 12 15 18 20 23
6 10 17 17 23 23 17 18 17 18 11 19 20 30 23 13 11 11 14 13 13 15 16 20 17 17 18 15 15 13 16 14 10 9 9 7 7 11 12 15 17 21 23 24
7 10 14 21 20 17 16 16 17 13 10 14 17 24 19 24 7 14 15 16 15 16 17 15 19 15 17 21 20 18 15 12 12 12 10 10 12 14 16 19 23 25 26 26
13 17 16 21 18 22 9 18 15 15 19 21 6 21 24 22 20 17 14 12 12 12 14 20 18 16 15 12 9 18 18 16 16 16 17 18 18 18 20 22 24 24 27 27
16 22 10 9 15 3 10 21 14 15 18 14 16 27 29 26 24 18 13 8 8 7 7 9 24 22 19 16 14 13 13 16 20 21 23 23 24 24 24 24 23 23 23 27
19 7 3 5 8 8 20 20 16 15 12 8 13 18 21 18 26 20 13 9 5 2 2 1 5 22 26 25 23 21 19 18 20 21 25 28 28 27 24 23 23 23 24 24
4 9 5 5 3 4 5 10 10 10 5 10 7 9 17 26 25 26 21 13 4 5 5 5 6 5 5 24 30 27 26 25 27 28 29 28 30 27 24 25 24 23 21 22
12 18 11 10 4 6 9 10 13 4 3 17 18 3 5 15 13 17 18 13 2 8 6 10 7 5 4 9 14 32 32 33 31 30 27 28 29 26 23 24 23 21 21 22
5 6 14 11 7 5 5 10 11 10 9 10 15 24 15 10 4 14 11 7 6 6 7 10 9 7 6 3 4 8 17 26 29 25 22 18 19 19 22 20 21 20 19 24
6 9 12 10 8 6 5 6 7 14 18 7 3 10 15 35 8 8 3 4 7 5 11 15 11 11 13 10 9 7 8 10 13 17 21 17 16 17 18 18 18 20 24 22
13 16 19 18 11 15 17 17 12 18 30 13 10 6 13 15 14 18 10 12 8 13 13 15 17 12 11 7 6 7 9 7 6 8 12 13 16 14 17 18 21 21 21 22
15 16 14 17 10 9 15 17 6 11 10 1 5 6 11 11 9 8 8 13 11 9 16 16 15 11 12 8 6 6 9 10 10 9 9 11 12 13 15 17 19 20 21 21
15 15 16 5 6 4 9 12 10 3 6 3 7 10 13 12 11 8 5 12 16 14 13 18 20 15 11 8 4 5 7 10 11 12 13 14 14 14 16 18 20 21 21 21
Wind_Direction
268 278 277 292 289 279 308 297 261 122 142 144 163 359 44 170 179 186 212 205 187 190 206 219 222 204 214 235 254 267 252 204 190 175 166 157 160 126 95 123 113 52 34 38
249 247 249 289 307 276 291 295 286 313 42 310 192 32 102 170 180 190 212 209 205 184 211 218 210 202 215 253 252 289 254 217 190 175 169 166 171 128 148 219 32 13 34 21
247 258 276 280 264 297 295 276 312 11 329 303 187 151 245 203 190 213 218 221 212 198 199 216 218 213 225 239 264 267 278 224 199 184 180 183 180 141 219 116 72 120 42 11
255 302 292 294 291 290 300 292 336 347 322 313 290 192 256 209 199 204 207 222 225 206 196 210 218 228 231 239 262 283 302 254 214 197 192 189 184 164 234 120 88 76 48 9
258 265 270 281 287 280 287 282 306 325 310 2 8 239 278 196 194 206 206 219 218 228 194 209 218 240 238 243 258 282 293 266 229 204 203 201 202 192 271 9 31 44 35 14
260 262 270 281 265 262 272 284 295 297 313 312 302 320 279 192 203 209 202 210 225 226 199 204 221 235 235 242 250 264 281 264 233 227 211 214 207 226 287 356 15 15 26 34
261 254 246 249 270 279 253 272 276 17 58 250 295 300 257 236 153 203 191 189 208 220 228 221 205 221 231 234 241 254 270 293 233 223 228 221 219 230 259 314 334 354 332 43
277 276 273 249 235 256 268 283 268 204 193 243 325 251 275 155 137 141 165 170 198 206 222 230 227 217 230 252 262 264 266 281 250 227 227 234 228 229 247 254 260 300 3 9
277 283 289 293 233 221 286 275 292 275 282 310 187 118 120 113 127 139 161 169 186 206 219 222 229 229 221 236 257 277 273 276 253 235 228 230 239 239 242 243 245 290 312 2
248 263 291 291 213 244 265 275 312 301 235 315 75 87 108 131 146 148 150 164 163 194 208 215 226 245 244 238 247 268 272 273 267 246 247 242 241 244 244 247 248 268 301 324
265 276 283 286 281 234 252 267 274 277 282 216 119 196 166 315 134 153 154 150 151 177 196 212 223 240 247 251 259 260 286 284 254 249 249 248 248 248 254 257 253 255 279 304
0 295 283 287 280 274 280 257 255 251 271 281 282 177 230 178 137 139 146 139 146 153 182 198 218 235 232 246 264 258 277 297 316 200 238 251 252 246 251 258 261 263 272 286
309 278 330 280 286 269 266 262 251 267 279 259 253 153 163 177 167 164 151 151 156 155 164 195 208 222 230 234 255 266 266 277 284 258 234 263 268 269 267 266 268 272 278 278
290 265 277 289 294 319 334 330 228 247 274 288 302 157 167 172 164 164 174 179 168 164 167 178 216 232 252 250 249 250 260 267 262 244 239 250 277 287 279 270 269 272 278 280
269 281 268 283 302 325 320 331 332 244 258 269 299 145 139 148 164 162 153 177 191 187 183 189 196 214 231 249 262 265 257 266 265 258 256 254 262 269 272 274 273 272 271 266
312 321 294 293 305 345 324 321 309 311 315 303 172 163 182 177 215 209 185 180 177 180 178 194 191 208 242 239 250 256 254 250 251 250 247 251 248 257 262 265 269 273 285 289
310 309 303 297 314 307 318 357 336 322 350 330 0 170 164 159 173 183 202 197 192 193 203 206 210 216 225 252 257 244 240 249 253 259 264 261 260 260 258 264 278 292 295 296
292 296 302 298 300 359 280 341 316 325 351 17 123 151 168 182 185 187 204 195 189 203 217 200 207 209 211 228 225 225 239 254 255 259 263 263 260 261 271 277 284 290 291 284
265 267 342 322 305 289 273 315 325 341 4 45 141 161 172 187 181 140 124 135 117 127 55 345 213 224 229 216 224 230 220 241 259 262 262 261 266 269 274 279 278 275 277 285
288 327 306 321 303 224 298 291 263 299 346 300 316 161 151 152 154 140 150 148 189 299 349 358 337 322 228 230 223 228 239 240 248 253 256 261 262 267 268 269 270 267 269 275
262 263 287 284 273 269 290 282 258 225 290 293 278 295 170 179 180 172 162 123 331 282 320 332 332 290 270 257 243 230 232 237 243 256 266 264 259 258 266 270 274 274 279 280
282 282 266 264 218 207 282 281 249 245 285 325 284 282 266 234 211 111 199 144 213 260 293 314 326 292 284 255 256 256 253 254 258 263 263 256 259 262 270 278 275 273 267 273
274 296 261 234 224 219 300 247 255 266 343 119 109 311 347 260 337 296 314 232 244 250 283 293 301 292 287 279 263 284 289 265 258 256 253 261 262 260 263 265 265 263 269 279
300 309 286 249 252 267 269 287 270 250 293 204 125 67 13 204 200 217 224 221 207 239 249 269 294 295 277 264 247 248 251 266 280 266 260 257 260 255 257 258 263 267 278 285
310 301 319 236 276 308 297 292 274 258 245 189 176 202 258 270 244 241 245 223 228 249 268 268 270 264 249 241 236 242 248 250 249 250 255 265 270 267 263 269 269 274 283 286
299 301 302 288 306 350 293 247 229 87 13 23 319 281 259 267 292 288 321 294 228 237 258 269 272 276 263 253 239 251 258 265 269 268 270 271 274 277 273 273 276 282 287 289